Location: Gleizolles
(44.4833°N, 6.7667°E)
Time: 22:13:53
(UTC+00:00)

A-11 Canister half - Pass Details

Date: 25 June 2024
Orbit: 1524 x 1684 km, 47.3° (Epoch: 18 July)

Event Time Altitude Azimuth Distance (km) Brightness Sun altitude
Rises 18:48:00 0° 293° (WNW) 4,676 14.2 4.3°
Reaches altitude 10° 18:51:32 10° 282° (WNW) 3,692 12.8 3.7°
Maximum altitude 18:59:02 29° 228° (SW) 2,533 10.4 2.6°
Drops below altitude 10° 19:06:38 10° 173° (S) 3,731 10.7 1.4°
Sets 19:10:15 0° 162° (SSE) 4,733 11.1 0.9°
